Location: Makakahi
(40.6833°S, 175.6000°E)
Time: 19:53:11
(UTC+00:00)

FENGYUN 1C DEB - Pass Details

Date: 07 February 2026
Orbit: 839 x 906 km, 98.9° (Epoch: 9 March)

Event Time Altitude Azimuth Distance (km) Brightness Sun altitude
Rises 09:32:21 0° 171° (S) 3,435 ? -20.3°
Reaches altitude 10° 09:34:45 10° 174° (S) 2,497 ? -20.7°
Maximum altitude 09:40:11 59° 252° (WSW) 994 ? -21.4°
Drops below altitude 10° 09:45:37 10° 329° (NNW) 2,500 ? -22.1°
Enters shadow 09:47:21 - 332° (NNW) 3,174 ? -22.3°
